Location: Franzen
(48.6167°N, 15.3833°E)
Time: 06:11:23
(UTC+00:00)

Altair - Pass Details

Date: 10 August 2021
Orbit: 1501 x 1682 km, 47.2° (Epoch: 21 September)

Event Time Altitude Azimuth Distance (km) Brightness Sun altitude
Rises 19:44:34 0° 181° (S) 4,846 9.7 -12.3°
Reaches altitude 10° 19:49:11 10° 163° (SSE) 3,831 9.1 -12.9°
Enters shadow 19:51:58 15° 147° (SSE) 3,424 8.7 -13.2°
Exits shadow 19:53:40 17° 135° (SE) 3,292 8.6 -13.4°
Maximum altitude 19:54:46 17° 127° (SE) 3,261 8.6 -13.6°
Drops below altitude 10° 20:00:15 10° 91° (E) 3,756 9.1 -14.2°
Sets 20:04:40 0° 73° (ENE) 4,711 9.8 -14.7°
